Location: Shepherdstown, WV
(39.4326°N, 77.8042°W)
Time: 18:40:49
(UTC-04:00)

Vanguard 1 Rocket - Pass Details

Date: 11 August 2021
Orbit: 650 x 4226 km, 34.3° (Epoch: 19 September)

Event Time Altitude Azimuth Distance (km) Brightness Sun altitude
Rises 04:50:51 0° 190° (S) 7,493 11.6 -16.0°
Reaches altitude 10° 04:57:27 10° 177° (S) 6,909 11.6 -15.0°
Maximum altitude 05:14:40 24° 132° (SE) 6,234 11.8 -12.2°
Drops below altitude 10° 05:31:46 10° 89° (E) 7,001 13.0 -9.4°
Sets 05:38:14 0° 78° (ENE) 7,631 13.9 -8.3°
